User: anonymous   Login
Location: ScottNC Observatory
(36.0892°N, 80.4832°W)
Time: 16:26:59
(UTC-04:00)
Language:

Oscar 19 - Orbit

View from above orbital plane
View from above orbital plane
View from above satellite
View from above satellite

Ground track
Ground track

The orbit data is extracted from the following two-line orbital elements,

1 20442U 90005G   19111.99182860  .00000010  00000-0  20038-4 0  9990
2 20442  98.6442  54.1035 0011100 324.6079  35.4367 14.32922702528116
Epoch (UTC): 21 April 2019 23:48:13
Eccentricity: 0.0011100
inclination: 98.6442°
perigee height: 774 km
apogee height: 790 km
right ascension of ascending node: 54.1035°
argument of perigee: 324.6079°
revolutions per day: 14.32922702
mean anomaly at epoch: 35.4367°
orbit number at epoch: 52811

The dashed part of the orbit path shows where the satellite is in the earth's shadow,  

DLR